Погода в Элвге

Россия / Республика Калмыкия     46°20′32″N   44°53′54″E
темп.,
°C
ветер,
м/с
пор.,
м/с
влажн.,
%
обл.,
%
осадки,
мм/ч
давл.,
гПа
погр.,
м
27 сентября, пн
пн2700:00+16зсз81267100 0.4 1011870
03:00+14зсз6116362 0.4 1012820
06:00+13зсз611653 0.0 1012540
09:00+14зсз912565 0.0 10121261
12:00+17зсз1012435 0.0 10131878
15:00+18сз911397 0.0 10132106
18:00+15сз610512 0.0 1014655
21:00+13сз49602 0.0 1015317
28 сентября, вт
вт2800:00+12зсз36655 0.0 1016165
03:00+11зсз34735 0.0 101669
06:00+10сз338119 0.0 101742
09:00+13ссз336983 0.0 1018514
12:00+15ссз336294 0.0 1019791
15:00+15ссз345859 0.0 1019720
18:00+14ссз225921 0.0 102022
21:00+13с226324 0.0 102123
29 сентября, ср
ср2900:00+12ссв477326 0.0 1022171
03:00+11ссв5771100 0.0 1023378
06:00+9ссв6869100 0.0 1024467
09:00+9ссв6760100 0.0 1025625
12:00+12ссв554994 0.0 10251111
15:00+13с564444 0.0 10251534
18:00+11ссв6647100 0.0 10261274
21:00+11ссв5646100 0.0 10281443
30 сентября, чт
чт3000:00+10ссв455186 0.0 1028841
03:00+8ссв47625 0.0 1028187
06:00+7ссв36655 0.0 1030161
09:00+10св45475 0.0 10311165
12:00+12св443766 0.0 10311909
15:00+13св443319 0.0 10302006
18:00+11св34394 0.0 1031110
21:00+10св33445 0.0 103251
1 октября, пт
пт100:00+9всв34480 0.0 103279
03:00+8всв35510 0.0 103282
06:00+7всв35550 0.0 103377
09:00+11всв45400 0.0 1034629
12:00+13всв45312 0.0 10341692
15:00+14всв55280 0.0 10331797
18:00+12всв46330 0.0 1033122
21:00+10всв46400 0.0 1034118